Probability
0 0 0 0 0 0 0 0 0 0 0 0 0 0 0 0 0 0 0 0 0 0 0 0 0 0 0 0 0 0 0 0 0 0 0 0 0 0 0 0 0 0 0 0
0 0 0 0 0 0 0 0 0 0 0 0 0 0 0 0 0 0 0 0 0 0 0 0 0 0 0 0 0 0 0 0 0 0 0 0 0 0 0 0 0 0 0 0
0 0 0 0 0 0 0 0 0 0 0 0 0 0 0 0 0 0 0 0 0 0 0 0 0 0 0 0 0 0 0 0 0 0 0 0 0 0 0 0 0 0 0 0
0 0 0 0 0 0 0 0 0 0 0 0 0 0 0 0 0 0 0 0 0 0 0 0 0 0 0 0 0 0 0 0 0 0 0 0 0 0 0 0 0 0 0 0
0 0 0 0 0 0 0 0 0 0 0 0 0 0 0 0 0 0 0 0 0 0 0 0 0 0 0 0 0 0 0 0 0 0 0 0 0 0 0 0 0 0 0 0
0 0 0 0 0 0 0 0 0 0 0 0 0 0 0 0 0 0 0 0 0 0 0 0 0 0 0 0 0 0 0 0 0 0 0 0 0 0 0 0 0 0 0 0
0 0 0 0 0 0 0 0 0 0 0 0 0 0 0 0 0 0 0 0 0 0 0 0 0 0 0 0 0 0 0 0 0 0 0 0 0 0 0 0 0 0 0 0
0 0 0 0 0 0 0 0 0 0 0 0 0 0 0 0 0 0 0 0 0 0 0 0 0 0 0 0 0 0 0 0 0 0 0 0 0 0 0 0 0 0 0 0
0 0 0 0 0 0 0 0 0 0 0 0 0 0 0 0 0 0 0 0 0 0 0 0 0 0 0 0 0 0 0 0 0 0 0 0 0 0 0 0 0 0 0 0
0 0 0 0 0 0 0 0 0 0 0 0 0 0 0 0 0 0 0 0 0 0 0 0 0 0 0 0 0 0 0 0 0 0 0 0 0 0 0 0 0 0 0 0
0 0 0 0 0 0 0 0 0 0 0 0 0 0 0 0 0 0 0 0 0 0 0 0 0 0 0 0 0 0 0 0 0 0 0 0 0 0 0 0 0 0 0 0
0 0 0 0 0 0 0 0 0 0 0 0 0 0 0 0 0 0 0 0 0 0 0 0 0 0 0 0 0 0 0 0 0 0 0 0 0 0 0 0 0 0 0 0
0 0 0 0 0 0 0 0 0 0 0 0 0 0 0 0 0 0 0 0 0 0 0 0 0 0 0 0 0 0 0 0 0 0 0 0 0 0 0 0 0 0 0 0
0 0 0 0 0 0 0 0 0 0 0 0 0 0 0 0 0 0 0 0 0 0 0 0 0 0 0 0 0 0 0 0 0 0 0 0 0 0 0 0 0 0 0 0
0 0 0 0 0 0 0 0 0 0 0 0 0 0 0 0 0 0 0 0 0 0 0 0 0 0 0 0 0 0 0 0 0 0 0 0 0 0 0 0 0 0 0 0
0 0 0 0 0 0 0 0 0 0 0 0 0 0 0 0 0 0 0 0 0 0 0 0 0 0 0 0 0 0 0 0 0 0 0 0 0 0 0 0 0 0 0 0
0 0 0 0 0 0 0 0 0 0 0 0 0 0 0 0 0 0 0 0 0 0 0 0 0 0 0 0 0 0 0 0 0 0 0 0 0 0 0 0 0 0 0 0
0 0 0 0 0 0 0 0 0 0 0 0 0 0 0 0 0 0 0 0 0 0 0 0 0 0 0 0 0 0 0 0 0 0 0 0 0 0 0 0 0 0 0 0
0 0 0 0 0 0 0 0 0 0 0 0 0 0 0 0 0 0 0 0 0 0 0 0 0 0 0 0 0 0 0 0 0 0 0 0 0 0 0 0 0 0 0 0
0 0 0 0 0 0 0 0 0 0 0 0 0 0 0 0 0 0 0 0 0 0 0 0 0 0 0 0 0 0 0 0 0 0 0 0 0 0 0 0 0 0 0 0
0 0 0 0 0 0 0 0 0 0 0 0 0 0 0 0 0 0 0 0 0 0 0 0 0 0 0 0 0 0 0 0 0 0 0 0 0 0 0 0 0 0 0 0
0 0 0 0 0 0 0 0 0 0 0 0 0 0 0 0 0 0 0 0 0 0 0 0 0 0 0 0 0 0 0 0 0 0 0 0 0 0 0 0 0 0 0 0
0 0 0 0 0 0 0 0 0 0 0 0 0 0 0 0 0 0 0 0 0 0 0 0 0 0 0 0 0 0 0 0 0 0 0 0 0 0 0 0 0 0 0 0
0 0 0 0 0 0 0 0 0 0 0 0 0 0 0 0 0 0 0 0 0 0 0 0 0 0 0 0 0 0 0 0 0 0 0 0 0 0 0 0 0 0 0 0
0 0 0 0 0 0 0 0 0 0 0 0 0 0 0 0 0 0 0 0 0 0 0 0 0 0 0 0 0 0 0 0 0 0 0 0 0 0 0 0 0 0 0 0
0 0 0 0 0 0 0 0 0 0 0 0 0 0 0 0 0 0 0 0 0 0 0 0 0 0 0 0 0 0 0 0 0 0 0 0 0 0 0 0 0 0 0 0
0 0 0 0 0 0 0 0 0 0 0 0 0 0 0 0 0 0 0 0 0 0 0 0 0 0 0 0 0 0 0 0 0 0 0 0 0 0 0 0 0 0 0 0
Height
5603 5609 5616 5623 5630 5637 5644 5651 5657 5661 5666 5670 5674 5677 5680 5683 5685 5688 5690 5691 5691 5692 5691 5691 5690 5688 5687 5685 5682 5679 5676 5672 5668 5663 5658 5652 5645 5637 5629 5620 5610 5600 5591 5581
5605 5611 5617 5623 5630 5636 5643 5648 5654 5658 5663 5665 5669 5673 5676 5678 5680 5682 5684 5684 5685 5685 5684 5683 5682 5680 5679 5676 5673 5670 5667 5663 5658 5653 5646 5640 5632 5624 5615 5605 5596 5586 5576 5566
5607 5612 5618 5624 5630 5636 5642 5646 5651 5656 5661 5661 5665 5668 5671 5673 5675 5676 5677 5678 5678 5677 5676 5675 5674 5672 5670 5668 5665 5662 5658 5653 5647 5641 5634 5627 5619 5610 5601 5592 5582 5573 5562 5551
5608 5614 5619 5626 5629 5633 5638 5642 5647 5651 5654 5655 5660 5663 5665 5667 5669 5670 5670 5670 5670 5669 5668 5668 5666 5664 5662 5659 5656 5652 5647 5642 5636 5629 5622 5614 5605 5597 5588 5578 5569 5558 5547 5535
5608 5612 5617 5622 5626 5630 5635 5639 5642 5646 5648 5651 5654 5657 5659 5660 5662 5662 5663 5662 5662 5662 5661 5660 5658 5656 5654 5650 5646 5642 5637 5631 5624 5617 5609 5601 5592 5583 5574 5565 5555 5543 5531 5517
5607 5611 5615 5620 5623 5626 5632 5635 5638 5640 5643 5646 5648 5651 5654 5653 5654 5655 5655 5655 5655 5655 5654 5652 5650 5648 5645 5641 5636 5631 5625 5619 5612 5604 5596 5588 5579 5570 5561 5551 5540 5527 5514 5499
5605 5609 5613 5617 5620 5624 5629 5632 5633 5635 5638 5641 5643 5646 5647 5647 5648 5648 5649 5649 5648 5647 5646 5644 5641 5638 5635 5631 5626 5620 5614 5607 5600 5592 5584 5575 5567 5557 5547 5536 5525 5512 5498 5482
5603 5607 5613 5614 5617 5621 5624 5626 5628 5630 5633 5636 5638 5639 5641 5642 5642 5642 5642 5642 5641 5639 5637 5635 5632 5629 5625 5620 5615 5609 5602 5595 5588 5580 5572 5563 5553 5543 5531 5519 5507 5492 5478 5463
5603 5608 5609 5611 5614 5617 5620 5622 5625 5627 5629 5631 5633 5634 5635 5636 5636 5636 5635 5634 5633 5631 5629 5626 5623 5619 5615 5609 5603 5597 5590 5583 5576 5568 5559 5550 5539 5528 5515 5501 5487 5473 5457 5442
5599 5603 5606 5608 5611 5614 5617 5619 5621 5624 5625 5627 5628 5629 5629 5629 5629 5629 5628 5627 5625 5623 5620 5617 5613 5608 5604 5598 5592 5586 5579 5572 5564 5556 5547 5536 5524 5512 5498 5483 5469 5453 5436 5421
5596 5600 5602 5605 5608 5611 5613 5616 5618 5619 5621 5622 5623 5623 5623 5623 5622 5621 5620 5618 5616 5614 5610 5606 5602 5598 5593 5587 5581 5575 5568 5560 5552 5543 5533 5522 5510 5495 5481 5465 5447 5431 5415 5399
5594 5597 5600 5603 5606 5608 5610 5612 5614 5615 5616 5617 5617 5617 5617 5616 5615 5613 5612 5609 5607 5604 5600 5596 5592 5587 5582 5576 5570 5563 5556 5548 5539 5530 5519 5508 5496 5483 5465 5448 5431 5413 5395 5379
5591 5594 5597 5600 5602 5605 5606 5608 5609 5610 5610 5611 5610 5610 5609 5608 5607 5605 5603 5600 5597 5594 5590 5586 5582 5577 5571 5565 5559 5552 5544 5535 5526 5515 5504 5491 5478 5466 5454 5439 5419 5399 5382 5367
5588 5591 5594 5597 5599 5601 5602 5603 5604 5604 5604 5604 5603 5602 5601 5600 5598 5596 5594 5591 5588 5584 5580 5576 5571 5566 5561 5554 5547 5539 5531 5521 5511 5500 5487 5474 5461 5446 5431 5418 5405 5390 5373 5356
5585 5588 5591 5593 5595 5596 5597 5598 5598 5598 5597 5597 5596 5594 5593 5591 5589 5587 5585 5582 5578 5574 5570 5566 5561 5556 5550 5543 5535 5526 5517 5507 5496 5484 5470 5457 5443 5429 5414 5399 5385 5371 5359 5346
5581 5583 5586 5588 5589 5590 5591 5591 5591 5590 5590 5589 5587 5586 5584 5582 5580 5578 5575 5572 5568 5564 5560 5556 5551 5545 5538 5530 5522 5513 5502 5492 5480 5468 5454 5441 5427 5412 5398 5384 5370 5357 5344 5332
5575 5578 5580 5581 5583 5583 5583 5583 5583 5582 5581 5580 5578 5577 5575 5573 5571 5568 5565 5562 5558 5554 5550 5545 5539 5533 5525 5517 5508 5499 5488 5476 5464 5451 5438 5424 5410 5396 5382 5369 5357 5345 5332 5320
5569 5572 5573 5574 5575 5575 5574 5574 5573 5572 5571 5570 5569 5567 5566 5564 5561 5558 5555 5552 5548 5544 5539 5534 5527 5520 5512 5504 5494 5484 5473 5461 5448 5435 5422 5408 5394 5381 5368 5356 5345 5334 5323 5312
5561 5563 5564 5565 5565 5565 5565 5565 5564 5563 5562 5561 5560 5558 5556 5554 5552 5549 5545 5542 5538 5533 5528 5522 5515 5507 5499 5490 5480 5469 5457 5445 5432 5419 5406 5392 5380 5367 5356 5345 5334 5324 5314 5305
5553 5554 5555 5556 5556 5556 5556 5556 5555 5554 5553 5552 5551 5549 5547 5545 5542 5539 5536 5532 5527 5522 5516 5509 5502 5494 5485 5475 5464 5453 5441 5429 5416 5404 5391 5378 5367 5356 5345 5335 5325 5315 5307 5300
5544 5545 5546 5547 5547 5547 5547 5547 5546 5545 5544 5543 5542 5540 5538 5535 5532 5529 5525 5521 5515 5510 5503 5496 5488 5479 5470 5459 5448 5436 5425 5413 5400 5388 5376 5365 5355 5345 5335 5325 5316 5308 5302 5296
5536 5537 5538 5538 5538 5538 5538 5538 5537 5536 5535 5534 5532 5531 5528 5525 5522 5518 5514 5509 5503 5497 5490 5482 5474 5464 5454 5443 5432 5421 5409 5397 5385 5373 5363 5353 5344 5335 5326 5317 5309 5303 5297 5293
5528 5529 5529 5530 5530 5530 5529 5529 5528 5527 5526 5525 5523 5521 5518 5515 5511 5507 5502 5497 5490 5483 5476 5467 5458 5448 5438 5427 5416 5405 5393 5381 5370 5360 5351 5342 5333 5324 5317 5310 5303 5298 5294 5291
5520 5520 5521 5521 5521 5521 5521 5520 5519 5518 5517 5515 5513 5510 5508 5504 5500 5495 5489 5483 5476 5469 5460 5452 5442 5433 5422 5412 5401 5389 5377 5367 5357 5348 5340 5331 5323 5315 5308 5303 5298 5294 5292 5291
5512 5512 5512 5513 5513 5512 5512 5511 5510 5509 5507 5505 5503 5500 5496 5492 5488 5482 5476 5469 5462 5454 5445 5436 5427 5417 5407 5396 5385 5373 5363 5353 5345 5337 5329 5321 5313 5307 5301 5297 5294 5292 5292 5292
5504 5504 5504 5504 5504 5503 5503 5502 5501 5499 5497 5495 5492 5488 5484 5480 5475 5469 5462 5455 5447 5438 5429 5420 5411 5401 5391 5380 5369 5359 5350 5341 5333 5325 5317 5310 5304 5299 5295 5292 5291 5291 5292 5294
5495 5496 5496 5496 5495 5495 5494 5493 5491 5489 5487 5484 5480 5476 5472 5466 5461 5454 5447 5439 5431 5423 5414 5405 5395 5385 5375 5365 5355 5346 5338 5330 5322 5314 5307 5301 5296 5293 5290 5289 5290 5292 5294 5297
Wind_Speed
23 24 25 26 28 29 30 29 27 26 25 24 23 23 23 24 25 25 26 28 29 30 32 33 34 34 35 36 37 38 40 41 44 46 49 53 57 61 65 68 69 69 69 69
22 22 22 22 24 26 28 28 27 26 25 25 25 23 23 24 25 26 27 29 30 32 33 34 35 36 36 37 38 40 42 44 46 49 53 56 61 64 67 68 67 66 68 71
20 20 21 22 21 23 24 25 25 25 24 27 27 26 26 26 27 28 29 30 32 33 34 35 35 36 37 38 40 42 44 46 49 52 56 60 64 66 66 65 65 67 70 75
18 18 19 19 20 22 23 24 25 25 27 30 28 28 28 28 29 30 30 32 33 33 34 34 35 36 38 39 41 43 45 48 52 56 60 63 64 64 63 63 66 70 75 80
19 18 17 17 19 21 22 22 24 25 28 29 28 29 29 29 29 30 31 32 32 33 33 34 36 37 39 40 42 44 47 51 55 59 62 62 62 61 63 66 70 75 80 85
19 18 18 18 18 18 19 21 22 24 26 26 27 28 26 28 29 29 30 30 31 32 33 35 36 38 39 41 43 47 50 54 58 60 61 60 60 62 65 70 75 80 84 89
20 19 18 17 17 17 17 17 20 22 23 24 26 25 25 27 27 28 28 29 31 33 34 35 36 38 40 43 46 50 54 57 58 58 58 59 62 65 70 74 79 84 88 93
20 19 17 17 17 17 16 18 20 21 21 22 23 24 24 24 25 26 28 30 31 32 33 35 37 39 42 45 49 53 55 56 56 57 58 61 64 69 74 79 84 88 92 96
19 17 17 17 17 17 17 17 18 18 19 20 21 22 23 25 26 27 28 29 30 32 34 36 38 41 44 48 51 54 54 54 55 57 60 64 69 74 79 83 88 92 96 98
19 18 18 18 16 16 15 16 16 17 18 19 20 21 23 24 24 26 27 29 31 33 35 38 41 44 47 50 51 52 52 53 55 59 63 68 73 78 83 87 92 96 98 99
18 18 18 17 16 16 14 14 14 14 15 17 18 19 21 23 25 27 29 31 33 35 37 40 43 46 48 49 50 50 52 54 58 62 66 71 77 82 86 91 95 98 98 97
17 18 17 16 15 14 13 12 12 13 14 16 18 21 23 25 27 29 31 33 34 36 39 42 45 46 47 47 49 50 53 57 61 66 71 75 80 84 89 93 95 97 95 91
16 17 16 15 13 12 12 12 14 16 18 20 23 25 27 28 29 31 32 34 36 39 41 43 44 45 45 47 49 52 56 60 65 70 75 79 83 87 90 92 93 92 88 82
16 16 16 14 13 13 15 16 19 21 23 25 27 29 30 30 31 33 34 36 38 40 42 42 43 44 46 48 52 56 60 64 69 74 79 83 87 90 93 93 91 85 79 76
18 17 17 16 17 19 21 23 25 26 28 30 31 31 32 32 33 34 36 38 39 40 41 42 43 45 47 51 55 59 64 69 73 78 83 86 89 91 92 90 86 79 74 71
21 21 21 22 23 25 27 28 30 31 32 33 33 32 32 33 34 35 37 38 39 39 41 42 44 47 51 55 59 64 68 73 78 82 85 87 89 90 89 84 78 73 71 67
26 26 27 28 29 30 32 33 34 34 34 33 33 33 33 34 35 36 37 38 39 40 41 44 47 51 54 59 63 68 72 77 81 84 86 88 89 87 83 77 72 69 66 62
31 31 31 32 33 34 34 34 34 33 33 32 33 33 34 34 35 36 38 39 39 41 44 47 50 54 58 63 68 72 77 80 83 85 87 88 86 82 76 71 68 65 60 53
32 32 32 32 33 33 33 33 33 32 32 33 33 34 34 35 36 37 38 39 41 44 47 50 54 58 63 68 72 76 79 81 83 85 86 85 80 74 69 67 64 59 52 44
30 30 30 31 31 31 31 31 31 32 32 33 33 34 35 36 37 38 39 41 44 47 50 54 58 63 68 72 76 79 81 82 84 85 83 79 72 67 65 62 57 50 43 36
28 28 28 29 29 29 30 30 31 32 32 33 34 35 36 37 38 39 41 45 48 51 55 59 63 68 72 75 78 80 81 83 84 82 77 71 66 63 60 55 48 42 35 29
26 26 27 27 28 28 29 30 31 32 32 33 34 35 36 38 40 42 45 48 52 56 60 64 68 72 75 77 79 80 82 83 81 75 69 64 62 58 54 47 41 35 28 22
25 26 26 27 27 28 29 30 31 32 33 34 35 36 38 40 43 46 49 52 56 60 64 68 71 74 76 77 79 81 82 79 73 67 62 60 57 53 47 40 34 27 20 13
25 26 27 28 28 29 30 31 32 33 34 35 37 38 41 43 46 49 53 57 61 64 68 71 73 75 76 78 80 81 77 71 65 61 59 56 52 47 40 34 26 19 11 5
27 27 28 29 30 30 32 32 33 34 35 37 39 41 44 47 50 54 57 61 64 67 70 72 74 75 77 80 79 75 68 63 60 58 55 51 46 39 33 25 17 9 3 6
28 28 29 29 30 31 32 33 34 35 37 39 42 45 48 51 54 58 61 64 67 69 71 72 74 77 79 77 72 66 61 59 58 55 51 45 39 32 25 15 7 2 8 12
27 28 28 29 30 32 33 34 36 38 41 43 46 49 52 55 58 61 63 66 67 69 71 73 76 77 74 69 63 59 58 57 54 50 44 38 32 24 14 5 3 11 15 18
Wind_Direction
188 190 190 190 194 198 201 205 211 217 223 226 228 233 239 245 251 256 261 266 270 273 277 279 281 283 285 287 288 290 292 295 297 299 302 304 307 309 311 312 313 314 315 315
192 197 198 199 200 203 206 210 214 218 222 228 231 235 243 250 257 262 267 271 274 277 279 281 282 283 285 286 288 291 294 297 299 302 304 306 309 311 312 313 314 315 315 316
194 199 200 204 206 209 212 215 219 223 228 237 238 242 249 256 263 268 271 274 276 277 278 279 281 283 284 287 290 293 296 299 301 304 306 309 311 312 312 313 314 315 316 316
203 204 208 207 210 214 217 220 226 228 232 240 244 250 257 263 267 271 272 273 274 276 277 279 281 283 286 289 292 295 298 301 303 306 308 310 311 312 313 314 315 316 316 317
212 215 216 217 216 218 222 227 232 235 240 246 252 255 259 264 267 268 269 271 274 276 278 280 283 286 288 292 295 298 300 303 306 308 309 310 311 312 313 314 315 316 317 317
218 219 219 220 223 225 227 233 236 239 244 249 252 256 260 263 265 267 269 273 275 277 280 283 286 289 292 294 297 300 303 305 307 308 309 311 311 312 313 315 316 316 317 318
218 219 221 224 229 230 232 232 236 240 243 245 251 256 257 261 265 268 272 275 278 280 283 286 289 291 294 297 299 302 304 306 308 309 310 311 312 313 314 315 316 317 318 319
221 220 217 221 224 226 227 229 234 240 243 246 251 255 259 263 268 272 275 278 281 284 286 288 291 293 296 299 301 304 306 307 308 309 310 311 313 314 315 316 317 318 319 320
222 220 219 221 223 227 229 232 237 242 248 253 257 262 266 269 273 275 278 281 283 286 288 290 293 295 298 301 304 305 307 308 309 310 311 313 314 315 316 317 318 319 320 321
216 217 216 218 224 229 233 237 241 246 252 258 263 267 271 274 277 279 281 283 285 288 290 293 295 298 301 303 305 306 307 308 309 311 313 314 315 317 317 318 319 320 322 323
216 214 217 222 226 229 233 239 244 251 258 265 271 275 278 280 281 282 284 286 288 290 293 296 299 302 304 305 306 307 308 309 310 312 314 315 317 318 319 320 321 322 323 324
213 215 217 220 223 227 236 246 256 264 272 277 281 285 287 287 287 287 288 290 292 294 297 299 302 304 305 305 306 307 308 310 312 313 315 316 317 318 320 321 322 323 324 324
211 212 214 217 223 234 247 260 270 278 284 288 290 292 292 291 290 290 291 293 295 297 300 301 303 304 304 305 307 308 310 311 313 315 316 317 318 319 320 321 323 324 325 324
211 213 218 225 238 252 264 273 281 286 290 292 294 294 293 292 291 292 293 295 297 299 301 302 302 303 305 306 308 310 312 313 315 316 317 318 319 320 321 322 324 325 325 324
220 226 235 246 258 268 276 283 287 289 292 293 293 293 292 291 291 292 294 296 298 300 300 301 302 304 306 308 310 312 313 315 316 317 318 319 320 321 322 324 325 325 326 326
234 242 251 259 267 275 281 285 287 289 291 291 291 290 290 290 291 293 296 298 299 299 300 301 303 305 308 310 312 314 315 316 317 318 318 319 321 322 324 325 325 326 327 328
247 253 259 266 272 277 281 284 286 287 288 288 287 287 288 290 292 295 296 297 298 299 300 303 305 308 310 312 314 315 316 317 318 318 319 320 322 323 325 325 326 327 328 329
257 262 267 271 274 277 279 281 283 284 284 284 285 286 289 291 294 295 296 296 297 299 302 305 307 310 312 314 315 316 317 317 318 319 320 321 323 324 325 326 327 328 328 329
263 266 269 271 274 276 278 279 280 280 281 282 285 287 290 292 293 294 295 296 299 302 305 307 310 312 314 315 316 316 317 318 319 320 321 322 323 324 325 326 327 328 329 331
262 265 267 269 271 272 274 275 276 278 280 283 285 288 290 291 293 294 296 298 301 304 307 310 312 314 315 315 316 317 318 318 319 320 321 323 324 325 326 327 327 328 330 332
259 261 263 265 267 269 271 273 275 278 280 283 285 287 289 291 293 295 298 302 304 307 309 312 313 314 315 315 316 317 318 318 319 321 322 323 324 325 326 327 328 330 332 334
258 260 262 264 267 269 271 274 276 278 281 283 285 287 290 293 296 299 302 305 307 309 311 313 313 314 315 316 317 317 318 319 320 321 322 323 324 325 327 328 329 331 333 336
260 262 265 267 269 271 272 274 276 279 281 284 286 290 293 297 300 302 305 307 309 311 312 313 313 314 315 316 316 317 318 319 320 321 322 323 324 325 326 327 329 331 335 343
264 266 267 269 270 272 274 276 278 281 283 287 291 294 297 300 303 305 307 308 310 311 312 313 313 314 315 316 317 318 319 320 320 321 323 324 324 325 326 327 329 332 341 16
266 268 269 270 272 274 276 278 281 284 288 291 295 297 300 302 304 306 308 309 311 311 312 313 314 314 315 316 317 318 319 320 321 322 323 323 324 325 326 327 329 337 29 113
267 269 270 272 274 276 279 282 286 289 292 295 297 299 302 304 305 307 309 310 310 311 312 313 313 314 316 317 318 319 320 321 321 322 323 323 324 325 325 326 333 77 130 131
267 269 272 274 277 280 284 287 289 292 294 297 299 301 303 305 306 308 309 310 310 311 312 313 314 316 317 318 319 319 320 321 322 322 323 323 323 323 323 327 129 138 137 135